When you browse on this site, cookies collect data to enhance your experience and personalize the content and advertising you see.
Visit our Privacy Policy to learn more. By continuing to use the site, you agree to this use of cookies and data.
  • en France
  • Liste des pays
  • À 7 jours
  • Température de l'eau
  • Carte satellitaire
  • Carte météo
  • Widgets météo
  • user-avatar
    Se connecter

    Météo par heure à Bovec

    Ce jour, 19 Juin, Mercredi

    Heure Température Précipitation Vent Pression Humidité
    00:00 +16°C° 0.2 mm 1 m/s 691 mmHg 91%
    01:00 +15°C° 0.2 mm 1 m/s 691 mmHg 91%
    02:00 +15°C° 0.2 mm 1 m/s 691 mmHg 91%
    03:00 +15°C° 0.2 mm 1 m/s 691 mmHg 91%
    04:00 +15°C° 0.2 mm 1 m/s 691 mmHg 91%
    05:00 +16°C° 0.1 mm 1 m/s 691 mmHg 89%
    06:00 +17°C° 0.1 mm 0 m/s 691 mmHg 88%
    07:00 +18°C° 0.1 mm 0 m/s 692 mmHg 86%
    08:00 +21°C° 0.4 mm 1 m/s 692 mmHg 80%
    09:00 +23°C° 0.4 mm 1 m/s 692 mmHg 75%
    10:00 +24°C° 0.4 mm 1 m/s 692 mmHg 69%
    11:00 +25°C° 0.4 mm 2 m/s 692 mmHg 66%
    12:00 +25°C° 0.4 mm 2 m/s 692 mmHg 62%
    13:00 +26°C° 0.4 mm 2 m/s 692 mmHg 58%
    14:00 +25°C° 1.1 mm 2 m/s 691 mmHg 65%
    15:00 +24°C° 1.1 mm 2 m/s 691 mmHg 71%
    16:00 +23°C° 1.1 mm 2 m/s 690 mmHg 77%
    17:00 +22°C° 1.3 mm 1 m/s 690 mmHg 82%
    18:00 +21°C° 1.3 mm 1 m/s 690 mmHg 88%
    19:00 +18°C° 1.3 mm 0 m/s 690 mmHg 93%
    20:00 +17°C° 0 mm 0 m/s 690 mmHg 93%
    21:00 +16°C° 0 mm 0 m/s 690 mmHg 92%
    22:00 +16°C° 0 mm 1 m/s 690 mmHg 92%
    23:00 +16°C° 0 mm 1 m/s 690 mmHg 91%

    Demain, 20 Juin, Jeudi

    Heure Température Précipitation Vent Pression Humidité
    00:00 +15°C° 0 mm 1 m/s 690 mmHg 91%
    01:00 +15°C° 0 mm 1 m/s 690 mmHg 91%
    02:00 +15°C° 0 mm 1 m/s 690 mmHg 91%
    03:00 +15°C° 0 mm 1 m/s 690 mmHg 91%
    04:00 +14°C° 0 mm 1 m/s 690 mmHg 92%
    05:00 +16°C° 0 mm 1 m/s 690 mmHg 89%
    06:00 +17°C° 0 mm 0 m/s 691 mmHg 86%
    07:00 +18°C° 0 mm 0 m/s 691 mmHg 83%
    08:00 +20°C° 0.3 mm 0 m/s 691 mmHg 79%
    09:00 +23°C° 0.3 mm 1 m/s 691 mmHg 74%
    10:00 +25°C° 0.3 mm 1 m/s 692 mmHg 70%
    11:00 +25°C° 0.9 mm 1 m/s 691 mmHg 69%
    12:00 +25°C° 0.9 mm 2 m/s 691 mmHg 67%
    13:00 +25°C° 0.9 mm 2 m/s 691 mmHg 66%
    14:00 +25°C° 0.5 mm 2 m/s 691 mmHg 66%
    15:00 +25°C° 0.5 mm 2 m/s 690 mmHg 67%
    16:00 +25°C° 0.5 mm 2 m/s 690 mmHg 67%
    17:00 +23°C° 0.2 mm 2 m/s 690 mmHg 74%
    18:00 +22°C° 0.2 mm 1 m/s 690 mmHg 82%
    19:00 +21°C° 0.2 mm 1 m/s 690 mmHg 89%
    20:00 +20°C° 0.1 mm 1 m/s 690 mmHg 91%
    21:00 +18°C° 0.1 mm 1 m/s 691 mmHg 92%
    22:00 +16°C° 0.1 mm 1 m/s 691 mmHg 93%
    23:00 +16°C° 0 mm 1 m/s 691 mmHg 92%

    Après-demain, 21 Juin, Vendredi

    Heure Température Précipitation Vent Pression Humidité
    00:00 +15°C° 0 mm 1 m/s 691 mmHg 91%
    01:00 +15°C° 0 mm 1 m/s 691 mmHg 90%
    02:00 +15°C° 0 mm 1 m/s 691 mmHg 90%
    03:00 +14°C° 0 mm 1 m/s 691 mmHg 90%
    04:00 +14°C° 0 mm 1 m/s 691 mmHg 90%
    05:00 +16°C° 0 mm 1 m/s 691 mmHg 87%
    06:00 +18°C° 0 mm 1 m/s 692 mmHg 83%
    07:00 +18°C° 0 mm 0 m/s 692 mmHg 79%
    08:00 +19°C° 0.6 mm 0 m/s 693 mmHg 79%
    09:00 +22°C° 0.6 mm 1 m/s 693 mmHg 78%
    10:00 +23°C° 0.6 mm 1 m/s 693 mmHg 78%
    11:00 +23°C° 1.3 mm 1 m/s 693 mmHg 77%
    12:00 +24°C° 1.3 mm 1 m/s 693 mmHg 76%
    13:00 +24°C° 1.3 mm 1 m/s 693 mmHg 75%
    14:00 +24°C° 1.2 mm 1 m/s 692 mmHg 76%
    15:00 +23°C° 1.2 mm 1 m/s 692 mmHg 76%
    16:00 +23°C° 1.2 mm 1 m/s 692 mmHg 77%
    17:00 +20°C° 0.7 mm 0 m/s 692 mmHg 81%
    18:00 +19°C° 0.7 mm 0 m/s 691 mmHg 85%
    19:00 +18°C° 0.7 mm 0 m/s 691 mmHg 89%
    20:00 +17°C° 0.1 mm 0 m/s 692 mmHg 89%
    21:00 +16°C° 0.1 mm 0 m/s 692 mmHg 89%
    22:00 +16°C° 0.1 mm 1 m/s 692 mmHg 89%
    23:00 +16°C° 0 mm 1 m/s 692 mmHg 88%

    22 Juin, Samedi

    Heure Température Précipitation Vent Pression Humidité
    00:00 +15°C° 0 mm 1 m/s 692 mmHg 87%
    01:00 +15°C° 0 mm 1 m/s 691 mmHg 87%
    02:00 +15°C° 0 mm 1 m/s 691 mmHg 86%
    03:00 +14°C° 0 mm 1 m/s 691 mmHg 85%
    04:00 +14°C° 0 mm 1 m/s 691 mmHg 85%
    05:00 +16°C° 0 mm 1 m/s 691 mmHg 82%
    06:00 +19°C° 0 mm 1 m/s 692 mmHg 80%
    07:00 +18°C° 0 mm 0 m/s 692 mmHg 77%
    08:00 +21°C° 0.3 mm 1 m/s 692 mmHg 74%
    09:00 +23°C° 0.3 mm 1 m/s 692 mmHg 71%
    10:00 +24°C° 0.3 mm 1 m/s 692 mmHg 68%
    11:00 +24°C° 1.4 mm 1 m/s 692 mmHg 70%
    12:00 +24°C° 1.4 mm 2 m/s 692 mmHg 72%
    13:00 +24°C° 1.4 mm 2 m/s 692 mmHg 74%
    14:00 +24°C° 0.5 mm 2 m/s 691 mmHg 71%
    15:00 +24°C° 0.5 mm 2 m/s 691 mmHg 69%
    16:00 +24°C° 0.5 mm 2 m/s 691 mmHg 66%
    17:00 +23°C° 0.2 mm 2 m/s 691 mmHg 73%
    18:00 +22°C° 0.2 mm 1 m/s 691 mmHg 80%
    19:00 +21°C° 0.2 mm 1 m/s 691 mmHg 87%
    20:00 +19°C° 0 mm 1 m/s 691 mmHg 89%
    21:00 +18°C° 0 mm 1 m/s 691 mmHg 91%
    22:00 +16°C° 0 mm 1 m/s 691 mmHg 93%
    23:00 +16°C° 0 mm 1 m/s 691 mmHg 92%

    23 Juin, Dimanche

    Heure Température Précipitation Vent Pression Humidité
    00:00 +15°C° 0 mm 1 m/s 691 mmHg 91%
    01:00 +15°C° 0 mm 1 m/s 691 mmHg 91%
    02:00 +15°C° 0 mm 1 m/s 691 mmHg 90%
    03:00 +14°C° 0 mm 1 m/s 691 mmHg 89%
    04:00 +14°C° 0 mm 1 m/s 691 mmHg 88%
    05:00 +16°C° 0 mm 1 m/s 692 mmHg 84%
    06:00 +19°C° 0 mm 1 m/s 693 mmHg 80%
    07:00 +18°C° 0 mm 0 m/s 693 mmHg 76%
    08:00 +22°C° 0 mm 1 m/s 694 mmHg 69%
    09:00 +24°C° 0 mm 1 m/s 694 mmHg 62%
    10:00 +26°C° 0 mm 1 m/s 694 mmHg 55%
    11:00 +26°C° 0.1 mm 1 m/s 694 mmHg 54%
    12:00 +27°C° 0.1 mm 1 m/s 694 mmHg 53%
    13:00 +27°C° 0.1 mm 2 m/s 694 mmHg 51%
    14:00 +27°C° 0.1 mm 2 m/s 694 mmHg 54%
    15:00 +26°C° 0.1 mm 2 m/s 694 mmHg 57%
    16:00 +26°C° 0.1 mm 2 m/s 694 mmHg 60%
    17:00 +25°C° 0.3 mm 1 m/s 694 mmHg 70%
    18:00 +23°C° 0.3 mm 1 m/s 694 mmHg 80%
    19:00 +22°C° 0.3 mm 1 m/s 694 mmHg 90%
    20:00 +21°C° 0.1 mm 1 m/s 694 mmHg 91%
    21:00 +20°C° 0.1 mm 1 m/s 694 mmHg 92%
    22:00 +18°C° 0.1 mm 1 m/s 695 mmHg 93%
    23:00 +18°C° 0 mm 1 m/s 695 mmHg 92%

    24 Juin, Lundi

    Heure Température Précipitation Vent Pression Humidité
    00:00 +18°C° 0 mm 1 m/s 695 mmHg 91%
    01:00 +18°C° 0 mm 1 m/s 695 mmHg 90%
    02:00 +16°C° 0 mm 1 m/s 695 mmHg 91%
    03:00 +16°C° 0 mm 1 m/s 695 mmHg 91%
    04:00 +16°C° 0 mm 1 m/s 695 mmHg 91%
    05:00 +18°C° 0 mm 1 m/s 696 mmHg 89%
    06:00 +20°C° 0 mm 1 m/s 696 mmHg 87%
    07:00 +21°C° 0 mm 1 m/s 697 mmHg 86%
    08:00 +22°C° 0 mm 1 m/s 697 mmHg 79%
    09:00 +24°C° 0 mm 1 m/s 697 mmHg 72%
    10:00 +25°C° 0 mm 1 m/s 698 mmHg 66%
    11:00 +26°C° 0 mm 1 m/s 698 mmHg 63%
    12:00 +27°C° 0 mm 1 m/s 698 mmHg 60%
    13:00 +28°C° 0 mm 1 m/s 698 mmHg 57%
    14:00 +28°C° 0 mm 1 m/s 698 mmHg 59%
    15:00 +28°C° 0 mm 1 m/s 698 mmHg 60%
    16:00 +27°C° 0 mm 1 m/s 698 mmHg 61%
    17:00 +26°C° 0.1 mm 1 m/s 698 mmHg 69%
    18:00 +25°C° 0.1 mm 1 m/s 698 mmHg 76%
    19:00 +23°C° 0.1 mm 1 m/s 698 mmHg 84%
    20:00 +22°C° 0 mm 1 m/s 698 mmHg 86%
    21:00 +21°C° 0 mm 1 m/s 698 mmHg 89%
    22:00 +19°C° 0 mm 1 m/s 698 mmHg 92%
    23:00 +19°C° 0 mm 1 m/s 698 mmHg 92%
    Voir plus